Wind_Speed
10 8 6 4 2 2 1 2 3 7 10 9 7 7 8 7 8 8 9 9 9 8 8 6 8 9 10 11 10 4 5 13 18 17 18 36 49 49 46 40 37 31 27
9 8 5 3 2 1 3 3 4 8 9 10 9 7 7 7 7 6 6 6 7 7 8 8 8 10 13 9 6 5 14 15 24 36 42 49 47 46 44 38 31 28 27
9 7 6 4 2 3 4 3 6 9 10 11 9 8 7 7 7 6 7 7 8 9 11 11 12 14 14 9 9 13 16 16 32 48 46 47 44 41 37 33 27 24 22
9 8 6 4 3 5 5 5 7 8 10 12 11 10 8 8 8 8 8 8 10 11 12 13 12 9 9 7 10 12 16 17 35 39 42 43 45 37 32 29 25 24 22
10 8 7 5 4 7 5 6 7 8 9 10 12 11 10 9 10 10 11 9 11 11 10 10 10 10 10 7 9 12 16 29 43 43 43 45 41 35 30 26 24 27 20
10 9 8 7 6 7 7 8 7 10 10 10 12 12 10 9 11 9 10 11 12 13 13 13 12 12 9 10 10 13 14 32 41 41 42 43 38 32 26 27 27 26 19
11 10 10 9 7 7 8 9 9 9 9 10 11 12 13 17 13 11 11 12 13 14 13 16 16 12 13 14 12 12 21 27 35 39 43 40 36 28 24 22 24 18 15
13 12 12 10 8 7 8 8 8 8 8 9 12 14 12 12 12 10 13 12 12 13 13 15 14 15 15 14 16 18 20 26 29 34 38 34 28 26 20 18 23 17 15
15 14 13 12 10 9 8 8 9 9 9 8 7 11 19 15 12 10 12 12 14 18 13 18 18 24 19 15 23 22 20 20 23 24 28 25 28 21 20 19 20 15 16
18 15 14 12 11 10 8 9 9 10 9 8 8 8 17 20 16 10 10 13 18 16 18 20 23 25 23 17 22 23 24 26 29 26 26 24 21 21 16 15 16 12 11
18 17 15 14 12 11 9 10 11 11 10 9 11 12 13 14 14 14 12 16 21 23 24 24 26 20 18 17 19 21 25 28 26 24 25 24 22 20 19 16 15 10 11
20 18 16 16 13 12 10 11 12 12 11 11 11 12 13 16 17 20 19 17 22 24 26 19 22 18 17 18 17 20 22 25 21 20 20 21 19 17 17 19 19 18 18
22 21 18 17 16 14 12 13 12 12 11 11 10 11 13 15 19 21 21 26 24 21 18 17 19 20 21 20 19 20 23 18 18 18 17 16 17 18 16 16 17 16 14
24 22 20 19 18 16 14 13 13 13 13 12 12 12 13 14 17 22 22 22 23 19 19 19 17 18 19 18 20 20 16 18 18 18 17 17 18 17 17 16 16 15 13
25 24 22 20 21 18 16 15 14 14 13 13 13 13 15 15 16 19 21 20 19 19 21 18 17 16 16 18 19 18 14 16 15 14 14 16 17 17 15 16 13 12 7
28 26 25 22 21 20 19 18 20 17 20 20 17 14 13 14 16 18 21 23 24 22 18 14 14 16 17 17 17 17 16 17 15 15 15 15 15 15 14 14 14 13 12
30 27 25 25 23 22 22 20 19 23 19 21 19 19 17 17 16 17 18 18 19 20 16 14 15 16 17 18 19 19 19 17 17 16 16 16 16 15 18 14 15 14 14
31 30 26 27 24 23 23 22 20 20 21 22 24 23 22 18 17 18 19 19 20 22 17 16 16 17 18 19 19 20 19 18 18 18 18 18 17 16 16 16 16 16 15
33 30 28 25 25 24 22 22 22 21 20 20 19 26 25 24 23 22 22 20 19 20 21 19 18 19 19 20 20 20 20 20 20 20 20 19 19 18 18 17 17 18 20
34 33 32 27 26 26 25 24 23 23 22 22 22 21 28 31 32 32 32 31 24 23 22 22 22 21 21 21 21 21 22 23 22 20 21 21 20 20 20 20 20 21 27
34 35 35 29 28 27 27 27 26 25 24 24 23 23 26 32 30 29 28 31 30 27 25 24 24 24 24 24 23 24 23 22 24 26 25 25 26 25 24 22 22 29 28
34 33 37 34 28 28 29 28 28 27 27 26 24 24 29 30 25 27 27 28 28 28 27 26 26 26 26 26 26 26 26 28 28 27 26 26 26 26 25 25 26 31 31
32 33 31 34 31 29 29 28 29 29 28 27 26 25 30 29 28 26 26 25 25 25 26 27 27 26 26 27 28 28 29 29 28 28 28 27 27 26 27 27 29 29 32
30 32 31 33 33 31 30 30 28 29 27 27 28 28 27 26 28 29 28 26 25 25 25 25 26 27 27 27 27 28 27 26 26 27 29 28 27 29 28 28 31 31 31
28 29 29 28 30 34 30 30 29 28 28 29 29 29 28 28 25 27 27 29 28 27 26 26 26 27 29 30 29 29 29 31 29 26 25 26 26 28 29 30 30 32 34
28 27 28 27 27 27 28 26 27 26 29 29 30 30 30 30 30 28 28 28 28 29 29 29 30 30 28 27 28 31 32 31 30 32 33 29 29 29 31 32 34 38 31
Wind_Direction
176 181 185 204 215 298 191 147 168 157 166 167 159 152 161 157 170 166 164 157 162 163 160 172 165 158 158 162 157 178 197 180 163 150 158 169 147 148 148 149 150 157 154
176 178 183 194 206 275 144 152 153 150 159 168 163 162 162 169 171 159 150 157 162 164 171 159 169 170 164 168 175 147 139 142 145 134 132 144 149 153 150 154 159 155 158
174 176 180 190 203 134 139 121 137 147 154 166 164 167 167 175 171 164 172 169 167 171 164 151 155 153 156 162 148 142 152 133 145 135 140 149 151 154 155 153 146 151 142
172 173 180 188 154 143 118 118 129 138 148 162 174 170 179 192 186 183 165 163 162 157 158 158 150 152 147 136 145 143 164 154 153 147 145 148 153 152 148 149 148 143 141
171 170 175 178 138 148 132 117 127 133 142 159 169 173 176 175 165 162 153 155 152 150 162 159 160 168 159 141 144 150 150 158 151 153 149 152 154 153 149 154 145 144 149
171 170 168 161 151 147 139 130 129 135 140 153 154 163 164 157 143 140 157 157 147 149 155 169 159 150 146 148 141 148 165 165 163 160 156 158 159 164 167 154 147 149 138
172 172 165 162 160 148 150 137 152 138 146 147 155 160 151 143 132 122 118 129 139 148 150 145 146 146 147 144 142 146 173 171 169 164 162 161 161 156 148 151 155 150 158
175 174 171 166 161 152 142 146 145 146 147 164 163 169 167 157 146 134 127 135 147 141 146 137 134 134 135 145 149 146 157 162 172 164 166 162 158 166 168 162 154 167 170
181 179 176 172 166 159 152 146 149 149 140 142 168 201 203 182 155 152 133 149 141 134 131 147 132 128 115 116 138 143 140 151 156 163 171 166 172 169 168 173 173 157 159
184 181 178 175 175 167 162 152 153 146 133 123 115 107 155 172 163 164 164 149 146 146 135 142 138 134 126 121 132 135 136 139 142 145 154 169 176 179 187 181 165 164 173
184 181 178 177 176 176 166 156 150 145 139 127 118 119 145 154 164 162 163 159 154 143 139 135 142 145 133 131 145 149 147 150 150 152 157 165 169 171 172 173 176 194 205
183 183 180 179 172 179 170 160 158 156 144 138 128 123 130 138 144 140 139 137 154 149 138 134 137 141 140 139 149 152 154 152 149 149 155 163 166 170 183 191 194 199 194
183 185 184 181 177 180 175 169 164 161 160 152 144 139 139 145 143 143 142 141 136 151 152 155 144 145 148 147 146 148 151 147 154 157 163 169 179 190 192 197 203 209 216
184 185 186 184 183 182 181 179 176 172 171 165 159 155 152 150 156 154 153 155 148 157 158 154 153 154 156 161 158 157 165 172 170 172 176 186 190 188 193 200 204 206 214
185 186 188 188 189 190 187 188 186 186 180 176 171 168 164 166 174 172 169 169 168 167 165 164 166 168 170 173 176 174 171 173 171 181 182 192 192 191 191 194 190 196 194
187 189 191 190 193 195 194 197 193 194 191 183 181 173 180 184 190 180 182 180 178 184 173 177 182 184 187 189 191 193 194 196 194 192 193 192 191 190 195 202 203 201 204
189 192 194 190 195 195 198 200 201 204 201 200 200 188 182 196 192 184 183 184 189 194 194 202 201 199 197 200 202 204 207 209 204 204 203 201 201 201 209 205 207 208 208
193 196 193 194 198 197 199 202 203 205 204 205 203 201 200 198 195 196 194 195 197 198 200 208 209 210 209 211 211 212 214 215 211 211 209 209 208 209 213 212 215 215 209
192 197 196 199 201 199 200 200 202 205 207 207 206 206 204 202 203 206 208 209 210 215 216 212 214 216 216 216 218 218 218 218 218 216 215 215 217 216 220 218 220 217 215
198 199 195 199 201 201 201 201 201 203 206 207 208 210 208 206 208 211 214 215 213 219 223 224 223 221 219 220 219 220 222 221 222 222 222 224 223 222 224 223 219 221 221
197 203 204 199 201 204 204 205 205 205 206 208 210 210 213 216 213 216 220 221 221 221 222 223 225 227 226 223 222 221 221 222 222 226 225 226 227 224 226 221 220 222 232
198 200 203 201 205 208 207 209 209 210 211 212 212 213 221 222 216 222 225 228 228 228 228 229 228 226 227 228 227 226 225 225 226 228 229 228 227 228 226 223 218 217 228
202 200 203 200 207 210 210 211 214 215 216 216 216 215 224 222 220 222 227 228 230 232 231 230 232 233 231 227 226 227 228 230 230 230 231 228 228 228 230 220 217 220 229
208 207 205 201 203 209 211 212 215 218 220 221 220 219 223 225 224 224 225 230 231 232 233 234 234 233 234 232 232 231 232 232 232 232 232 231 229 229 228 223 222 222 222
208 211 211 211 208 207 212 214 217 220 224 222 225 226 224 225 228 226 226 226 230 232 232 234 238 241 241 236 232 234 235 241 242 232 230 233 229 230 231 226 223 227 218
206 211 211 211 211 211 212 218 222 226 227 231 229 230 231 230 229 229 227 227 227 230 234 239 244 244 246 248 244 238 239 246 247 245 244 240 235 230 228 222 226 225 230
Height
1447 1448 1449 1449 1449 1448 1447 1447 1446 1447 1450 1452 1453 1453 1454 1455 1456 1458 1459 1461 1463 1464 1466 1468 1468 1469 1470 1472 1474 1474 1473 1474 1477 1483 1482 1492 1496 1503 1513 1521 1528 1534 1541
1446 1447 1448 1448 1448 1447 1447 1447 1446 1447 1450 1452 1454 1455 1456 1457 1457 1459 1461 1463 1464 1465 1466 1468 1469 1471 1472 1474 1475 1475 1476 1477 1478 1481 1487 1492 1502 1509 1516 1523 1531 1537 1542
1445 1446 1447 1447 1447 1447 1447 1447 1447 1447 1450 1453 1455 1454 1456 1457 1459 1460 1461 1462 1464 1465 1467 1469 1470 1471 1473 1476 1476 1477 1479 1482 1484 1485 1493 1502 1508 1515 1522 1528 1534 1539 1543
1444 1446 1447 1447 1447 1447 1447 1447 1449 1449 1451 1453 1453 1454 1456 1457 1459 1460 1462 1463 1464 1467 1468 1471 1472 1474 1475 1475 1478 1480 1482 1485 1488 1493 1499 1505 1512 1520 1526 1531 1535 1540 1545
1444 1445 1446 1447 1447 1448 1449 1449 1450 1450 1451 1452 1453 1455 1457 1458 1460 1462 1463 1464 1466 1469 1470 1472 1474 1475 1476 1478 1480 1481 1484 1487 1491 1497 1503 1509 1516 1523 1528 1534 1538 1542 1549
1443 1445 1446 1448 1448 1449 1449 1450 1451 1451 1453 1453 1454 1456 1458 1460 1461 1462 1464 1465 1467 1469 1471 1471 1473 1476 1478 1481 1483 1484 1486 1490 1494 1500 1506 1512 1519 1525 1531 1535 1540 1545 1550
1443 1445 1447 1448 1449 1449 1450 1451 1452 1453 1453 1455 1456 1458 1459 1461 1463 1464 1465 1467 1469 1471 1472 1474 1476 1478 1480 1482 1485 1488 1490 1494 1499 1502 1508 1515 1521 1528 1533 1537 1544 1548 1551
1442 1445 1447 1449 1450 1451 1451 1452 1452 1453 1454 1455 1457 1458 1460 1463 1465 1466 1468 1470 1471 1473 1475 1477 1478 1480 1482 1485 1487 1491 1494 1498 1503 1507 1514 1520 1526 1531 1536 1540 1545 1548 1550
1441 1444 1447 1449 1451 1452 1453 1453 1454 1454 1455 1456 1457 1457 1458 1463 1466 1468 1471 1472 1474 1476 1478 1480 1482 1484 1486 1488 1490 1494 1498 1501 1508 1513 1518 1524 1530 1534 1538 1541 1545 1549 1552
1439 1443 1446 1449 1451 1453 1454 1454 1455 1456 1457 1458 1458 1457 1458 1463 1466 1469 1471 1474 1476 1478 1481 1483 1487 1489 1492 1495 1497 1499 1502 1507 1511 1517 1522 1528 1532 1537 1540 1543 1546 1550 1552
1438 1442 1445 1448 1451 1453 1454 1455 1456 1459 1459 1460 1460 1461 1462 1464 1467 1469 1472 1475 1477 1480 1483 1485 1489 1493 1496 1499 1502 1505 1508 1511 1515 1520 1524 1528 1532 1536 1540 1543 1547 1550 1551
1436 1440 1444 1447 1450 1452 1454 1456 1458 1460 1461 1462 1463 1464 1466 1467 1469 1471 1474 1478 1480 1484 1487 1491 1493 1497 1500 1503 1505 1508 1512 1515 1519 1523 1527 1531 1535 1538 1539 1541 1543 1544 1546
1434 1438 1442 1445 1449 1452 1454 1457 1459 1461 1464 1465 1467 1468 1469 1471 1473 1475 1479 1482 1486 1490 1492 1494 1496 1499 1503 1506 1509 1512 1515 1520 1523 1526 1529 1532 1533 1535 1537 1539 1541 1543 1544
1431 1436 1440 1444 1448 1451 1454 1456 1460 1462 1464 1466 1468 1470 1473 1474 1476 1478 1482 1485 1488 1492 1494 1497 1499 1503 1506 1509 1511 1514 1518 1520 1522 1525 1527 1529 1531 1534 1536 1538 1540 1541 1542
1428 1432 1437 1442 1445 1449 1453 1456 1459 1461 1465 1467 1469 1471 1473 1476 1478 1479 1482 1486 1490 1493 1495 1499 1502 1505 1507 1510 1513 1515 1519 1520 1523 1526 1528 1528 1531 1533 1535 1536 1538 1539 1541
1423 1428 1433 1438 1441 1446 1450 1453 1455 1458 1461 1464 1467 1471 1474 1476 1477 1479 1482 1485 1489 1492 1496 1500 1503 1505 1508 1510 1513 1515 1518 1518 1521 1524 1525 1527 1529 1531 1532 1532 1534 1536 1539
1418 1424 1429 1433 1437 1442 1446 1450 1452 1455 1458 1462 1465 1469 1472 1473 1477 1480 1483 1486 1490 1493 1496 1499 1502 1504 1506 1508 1510 1513 1514 1516 1518 1521 1523 1524 1526 1528 1528 1529 1531 1533 1534
1412 1419 1425 1429 1433 1437 1441 1446 1449 1452 1455 1457 1461 1465 1469 1472 1475 1478 1481 1484 1487 1489 1494 1496 1498 1500 1503 1505 1507 1509 1511 1513 1514 1516 1518 1520 1522 1523 1523 1525 1527 1528 1529
1407 1413 1419 1424 1429 1433 1437 1441 1445 1448 1452 1455 1459 1461 1465 1468 1472 1476 1479 1481 1484 1486 1488 1490 1493 1495 1497 1500 1502 1504 1507 1508 1509 1510 1513 1515 1516 1517 1519 1520 1522 1523 1524
1402 1406 1411 1418 1424 1428 1432 1436 1439 1443 1447 1450 1453 1456 1458 1462 1463 1465 1468 1472 1476 1479 1481 1484 1486 1488 1491 1493 1496 1498 1499 1500 1503 1506 1508 1509 1510 1511 1513 1513 1515 1514 1513
1395 1400 1405 1413 1418 1422 1426 1430 1433 1437 1440 1443 1447 1451 1452 1453 1456 1460 1462 1464 1467 1471 1473 1475 1478 1481 1482 1484 1486 1487 1491 1494 1494 1493 1497 1498 1498 1500 1501 1504 1505 1503 1503
1389 1394 1398 1405 1412 1416 1420 1424 1428 1431 1434 1437 1440 1444 1445 1448 1452 1455 1457 1459 1460 1463 1466 1468 1470 1471 1473 1476 1479 1481 1482 1482 1483 1485 1488 1489 1490 1491 1493 1494 1495 1493 1491
1383 1388 1390 1398 1404 1409 1413 1418 1422 1425 1428 1431 1434 1437 1437 1440 1444 1448 1451 1453 1455 1456 1457 1460 1462 1464 1466 1466 1466 1468 1470 1472 1476 1477 1478 1480 1482 1484 1484 1485 1486 1484 1482
1380 1383 1385 1388 1395 1402 1406 1410 1414 1418 1422 1425 1427 1429 1432 1433 1435 1438 1442 1446 1448 1449 1450 1451 1453 1455 1457 1460 1460 1460 1462 1464 1466 1469 1469 1470 1472 1471 1473 1474 1473 1474 1475
1374 1378 1382 1386 1389 1393 1398 1403 1407 1411 1414 1417 1420 1422 1424 1426 1427 1428 1432 1435 1438 1439 1440 1441 1441 1442 1444 1447 1450 1451 1453 1453 1456 1460 1462 1463 1465 1466 1464 1465 1465 1464 1468
1366 1370 1375 1379 1383 1387 1391 1396 1400 1404 1406 1409 1411 1414 1417 1418 1419 1419 1421 1423 1426 1428 1430 1431 1432 1433 1435 1436 1438 1440 1442 1445 1448 1451 1452 1452 1452 1451 1451 1453 1454 1455 1461